Location: Haliburton Scout Reserve
(45.0900°N, 78.3200°W)
Time: 07:46:39
(UTC-04:00)

S-56A Canister/Altair - Pass Details

Date: 30 January 2023
Orbit: 639 x 2493 km, 38.9° (Epoch: 27 March)

Event Time Altitude Azimuth Distance (km) Brightness Sun altitude
Rises 10:45:06 0° 193° (SSW) 2,951 11.3 23.2°
Reaches altitude 10° 10:49:05 10° 157° (SSE) 2,185 12.0 23.5°
Maximum altitude 10:50:32 11° 139° (SE) 2,180 11.5 23.6°
Drops below altitude 10° 10:52:05 10° 122° (ESE) 2,356 11.1 23.7°
Sets 10:56:59 0° 90° (E) 3,662 11.3 24.1°
